Weather History for KCKC - October, 2012

Change the Weather History Date:

Sunday, October 28, 2012

  Actual Average Record
Temperature  
Mean Temperature 25 °F -  
Max Temperature 35 °F 40 °F 57 °F (1998)
Min Temperature 15 °F 28 °F 14 °F (2013)
Degree Days  
Heating Degree Days 40    
Moisture  
Dew Point 20 °F    
Average Humidity 76    
Maximum Humidity 86    
Minimum Humidity 56    
Precipitation  
Precipitation 0.00 in - - ()
Sea Level Pressure  
Sea Level Pressure 30.30 in    
Wind  
Wind Speed 2 mph (SSE)    
Max Wind Speed 10 mph    
Max Gust Speed 16 mph    
Visibility 10 miles    
Events Snow    
Averages and records for this station are not official NWS values.
T = Trace of Precipitation, MM = Missing Value Source: NWS Daily Summary

Daily Weather History Graph

Daily Weather History Graph

Search for Another Location

Airport or City:

Trip Planner

Search our weather history database for the weather conditions in past years. The results will help you decide how hot, cold, wet, or windy it might be!

Date:

Astronomy

Oct. 28, 2012 Rise Set
Actual Time 7:40 AM CDT 5:49 PM CDT
Civil Twilight 7:08 AM CDT 6:21 PM CDT
Nautical Twilight 6:32 AM CDT 6:57 PM CDT
Astronomical Twilight 5:56 AM CDT 7:33 PM CDT
Moon 5:07 PM CDT 6:32 AM CDT
Length of Visible Light 11h 12m
Length of Day
10h 08m
Waxing Gibbous, 99% of the Moon is Illuminated
Oct 28
Waxing Gibbous
Oct 29
Full
Nov 6
Last Quarter
Nov 13
New
Nov 20
First Quarter

Hourly Weather History & Observations

Time (CDT) Temp. Windchill Dew Point Humidity Pressure Visibility Wind Dir Wind Speed Gust Speed Precip Events Conditions
12:13 AM 23.0 °F - 15.8 °F 74% 30.29 in 10.0 mi Calm Calm - N/A   Clear
12:34 AM 19.4 °F 14.3 °F 15.8 °F 86% 30.29 in 10.0 mi North 3.5 mph - N/A   Clear
12:53 AM 19.4 °F 14.3 °F 15.8 °F 86% 30.29 in 10.0 mi North 3.5 mph - N/A   Scattered Clouds
1:14 AM 19.4 °F - 14.0 °F 80% 30.29 in 10.0 mi Calm Calm - N/A   Scattered Clouds
1:33 AM 19.4 °F - 14.0 °F 80% 30.29 in 10.0 mi Calm Calm - N/A   Scattered Clouds
1:54 AM 19.4 °F - 14.0 °F 80% 30.29 in 10.0 mi Calm Calm - N/A   Scattered Clouds
2:13 AM 19.4 °F - 14.0 °F 80% 30.29 in 10.0 mi Calm Calm - N/A   Clear
2:33 AM 17.6 °F - 12.2 °F 79% 30.29 in 10.0 mi Calm Calm - N/A   Scattered Clouds
2:53 AM 17.6 °F - 12.2 °F 79% 30.29 in 10.0 mi Calm Calm - N/A   Scattered Clouds
3:14 AM 15.8 °F - 12.2 °F 86% 30.29 in 10.0 mi Calm Calm - N/A   Clear
3:34 AM 15.8 °F - 12.2 °F 86% 30.29 in 10.0 mi Calm Calm - N/A   Clear
3:54 AM 17.6 °F - 12.2 °F 79% 30.29 in 10.0 mi Calm Calm - N/A   Mostly Cloudy
4:13 AM 17.6 °F - 12.2 °F 79% 30.29 in 10.0 mi Calm Calm - N/A   Scattered Clouds
4:34 AM 17.6 °F - 12.2 °F 79% 30.29 in 10.0 mi Calm Calm - N/A   Scattered Clouds
4:53 AM 19.4 °F - 15.8 °F 86% 30.30 in 10.0 mi Calm Calm - N/A   Mostly Cloudy
5:13 AM 17.6 °F - 12.2 °F 79% 30.30 in 10.0 mi Calm Calm - N/A   Mostly Cloudy
5:34 AM 17.6 °F - 14.0 °F 86% 30.30 in 10.0 mi Calm Calm - N/A   Mostly Cloudy
5:54 AM 19.4 °F - 15.8 °F 86% 30.30 in 10.0 mi Calm Calm - N/A   Overcast
6:13 AM 19.4 °F - 15.8 °F 86% 30.30 in 10.0 mi Calm Calm - N/A   Overcast
6:34 AM 19.4 °F - 15.8 °F 86% 30.30 in 10.0 mi Calm Calm - N/A   Overcast
6:53 AM 19.4 °F - 15.8 °F 86% 30.30 in 10.0 mi Calm Calm - N/A   Overcast
7:13 AM 19.4 °F 14.3 °F 15.8 °F 86% 30.30 in 10.0 mi North 3.5 mph - N/A   Overcast
7:34 AM 19.4 °F - 15.8 °F 86% 30.31 in 10.0 mi Calm Calm - N/A   Overcast
7:54 AM 19.4 °F - 15.8 °F 86% 30.31 in 10.0 mi Calm Calm - N/A   Overcast
8:13 AM 19.4 °F - 15.8 °F 86% 30.32 in 10.0 mi Calm Calm - N/A   Overcast
8:33 AM 21.2 °F 16.4 °F 15.8 °F 80% 30.32 in 10.0 mi NNE 3.5 mph - N/A   Overcast
8:53 AM 23.0 °F - 17.6 °F 80% 30.32 in 10.0 mi Calm Calm - N/A   Overcast
9:13 AM 24.8 °F - 19.4 °F 80% 30.32 in 10.0 mi Calm Calm - N/A   Overcast
10:13 AM 28.4 °F 23.3 °F 17.6 °F 64% 30.32 in 10.0 mi SE 4.6 mph - N/A   Scattered Clouds
10:33 AM 30.2 °F 24.3 °F 19.4 °F 64% 30.31 in 10.0 mi SSE 5.8 mph - N/A   Clear
10:53 AM 30.2 °F 23.4 °F 17.6 °F 60% 30.31 in 10.0 mi SE 6.9 mph - N/A   Mostly Cloudy
11:13 AM 32.0 °F 26.4 °F 19.4 °F 60% 30.31 in 10.0 mi ESE 5.8 mph - N/A   Mostly Cloudy
11:34 AM 32.0 °F 24.8 °F 19.4 °F 60% 30.30 in 10.0 mi SE 8.1 mph - N/A   Mostly Cloudy
12:13 PM 32.0 °F 26.4 °F 19.4 °F 60% 30.30 in 10.0 mi SSE 5.8 mph - N/A   Overcast
12:33 PM 32.0 °F 25.6 °F 21.2 °F 64% 30.30 in 7.0 mi SE 6.9 mph - N/A   Overcast
12:54 PM 33.8 °F 25.8 °F 21.2 °F 60% 30.29 in 10.0 mi SE 10.4 mph 16.1 mph N/A   Overcast
1:14 PM 33.8 °F 27.0 °F 21.2 °F 60% 30.29 in 10.0 mi SSE 8.1 mph - N/A   Overcast
1:34 PM 33.8 °F 28.6 °F 23.0 °F 65% 30.28 in 10.0 mi SSE 5.8 mph - N/A   Overcast
1:53 PM 33.8 °F 27.7 °F 23.0 °F 65% 30.28 in 10.0 mi SSE 6.9 mph - N/A   Overcast
2:14 PM 33.8 °F 28.6 °F 24.8 °F 70% 30.28 in 10.0 mi SE 5.8 mph - N/A   Overcast
2:33 PM 33.8 °F 27.7 °F 23.0 °F 65% 30.28 in 10.0 mi SSE 6.9 mph - N/A   Overcast
2:54 PM 35.6 °F 29.9 °F 21.2 °F 56% 30.28 in 10.0 mi South 6.9 mph - N/A   Overcast
3:13 PM 35.6 °F 29.9 °F 21.2 °F 56% 30.28 in 10.0 mi South 6.9 mph - N/A   Overcast
3:34 PM 33.8 °F 26.4 °F 21.2 °F 60% 30.28 in 10.0 mi South 9.2 mph - N/A   Mostly Cloudy
3:53 PM 33.8 °F 25.8 °F 21.2 °F 60% 30.28 in 10.0 mi South 10.4 mph - N/A   Scattered Clouds
4:13 PM 33.8 °F 27.7 °F 23.0 °F 65% 30.28 in 10.0 mi South 6.9 mph - N/A   Mostly Cloudy
4:34 PM 33.8 °F 29.6 °F 24.8 °F 70% 30.28 in 10.0 mi South 4.6 mph - N/A   Overcast
4:54 PM 32.0 °F 23.6 °F 24.8 °F 75% 30.28 in 7.0 mi South 10.4 mph - N/A Snow Light Snow
5:13 PM 32.0 °F 26.4 °F 24.8 °F 75% 30.28 in 10.0 mi South 5.8 mph - N/A   Overcast
5:33 PM 33.8 °F 27.7 °F 24.8 °F 70% 30.29 in 10.0 mi South 6.9 mph - N/A   Overcast
5:53 PM 32.0 °F 24.8 °F 24.8 °F 75% 30.29 in 7.0 mi South 8.1 mph - N/A Snow Light Snow
6:14 PM 32.0 °F 27.5 °F 24.8 °F 75% 30.29 in 4.0 mi South 4.6 mph - N/A Snow Light Snow
6:34 PM 30.2 °F 25.4 °F 26.6 °F 86% 30.29 in 10.0 mi South 4.6 mph - N/A Snow Light Snow
6:53 PM 30.2 °F 26.7 °F 26.6 °F 86% 30.30 in 7.0 mi SSW 3.5 mph - N/A Snow Light Snow
7:13 PM 30.2 °F 26.7 °F 26.6 °F 86% 30.30 in 10.0 mi SSW 3.5 mph - N/A   Overcast
7:33 PM 30.2 °F - 26.6 °F 86% 30.30 in 10.0 mi Calm Calm - N/A   Overcast
7:53 PM 30.2 °F 25.4 °F 24.8 °F 80% 30.30 in 10.0 mi SSW 4.6 mph - N/A   Overcast
8:13 PM 30.2 °F 25.4 °F 24.8 °F 80% 30.30 in 10.0 mi SSW 4.6 mph - N/A   Overcast
8:33 PM 30.2 °F - 24.8 °F 80% 30.30 in 10.0 mi Calm Calm - N/A   Overcast
8:53 PM 32.0 °F - 24.8 °F 75% 30.31 in 10.0 mi Calm Calm - N/A   Overcast
9:14 PM 32.0 °F - 24.8 °F 75% 30.31 in 10.0 mi Calm Calm - N/A   Overcast
9:33 PM 32.0 °F - 24.8 °F 75% 30.31 in 10.0 mi Calm Calm - N/A   Overcast
9:53 PM 32.0 °F - 24.8 °F 75% 30.31 in 10.0 mi Calm Calm - N/A   Overcast
10:13 PM 30.2 °F - 24.8 °F 80% 30.32 in 10.0 mi Calm Calm - N/A   Overcast
10:33 PM 30.2 °F - 24.8 °F 80% 30.32 in 10.0 mi Calm Calm - N/A   Overcast
10:53 PM 30.2 °F - 24.8 °F 80% 30.32 in 10.0 mi Calm Calm - N/A   Overcast
11:14 PM 30.2 °F - 24.8 °F 80% 30.32 in 10.0 mi Calm Calm - N/A   Overcast
11:34 PM 30.2 °F - 24.8 °F 80% 30.32 in 10.0 mi Calm Calm - N/A   Overcast
11:53 PM 30.2 °F - 24.8 °F 80% 30.32 in 10.0 mi Calm Calm - N/A   Mostly Cloudy